EW9592 Weather Reports


Display with metric or nautical units.
time (UTC)temp
F
wind
direction
speed
MPH
gust
MPH
rain 1hr
in
rain 24hr
in
rain mn
in
humidity
%
barometer
mb
20260506111551 45 338 0.0 1.0 0.00 0.99 0.55 93 1010.9
20260506110048 46 13 0.0 1.0 0.00 0.99 0.55 94 1010.3
20260506104547 46 296 0.0 0.0 0.00 0.99 0.55 94 1010.5
20260506103041 47 359 0.0 1.0 0.00 0.99 0.55 94 1009.9
20260506101538 48 26 0.0 1.0 0.00 0.99 0.55 94 1009.3
20260506100037 48 269 0.0 2.0 0.00 0.99 0.55 94 1009.4
20260506094537 48 338 0.0 1.0 0.00 0.99 0.55 94 1008.9
20260506093044 48 338 0.0 1.0 0.00 0.99 0.55 94 1008.7
20260506091533 48 267 0.0 0.0 0.00 0.99 0.55 94 1008.7
20260506090031 48 20 0.0 1.0 0.01 0.99 0.55 94 1008.3
20260506084532 48 312 0.0 2.0 0.01 0.99 0.55 94 1008.9
20260506083029 48 345 0.0 3.0 0.02 0.99 0.55 93 1008.6
20260506081523 49 271 0.0 1.0 0.03 0.98 0.54 94 1007.8
20260506073015 50 19 0.0 3.0 0.08 0.97 0.53 93 1007.1
20260506071513 51 25 0.0 2.0 0.08 0.95 0.51 93 1006.7
20260506061505 52 8 0.0 1.0 0.14 0.87 0.43 93 1006.4
20260506044559 58 17 0.0 1.0 0.15 0.59 0.15 93 1006.5
20260506043050 58 162 0.0 0.0 0.06 0.48 0.04 93 1006.2
20260506041553 59 162 0.0 1.0 0.06 0.47 0.03 93 1006.2
20260506040046 59 164 0.0 3.0 0.07 0.44 0.00 93 1006.1
20260506034544 59 140 0.0 1.0 0.08 0.44 0.44 93 1006.3
20260506033043 59 148 0.0 2.0 0.06 0.42 0.42 93 1006.6
20260506031555 59 248 0.0 4.0 0.05 0.41 0.41 93 1006.8
20260506030057 59 212 0.0 2.0 0.01 0.37 0.37 93 1007.1
20260506024541 59 155 0.0 3.0 0.00 0.36 0.36 93 1007.2
20260506023040 59 124 0.0 0.0 0.00 0.36 0.36 93 1007.5
20260506021540 59 124 0.0 0.0 0.00 0.36 0.36 93 1007.2
20260506020038 59 124 0.0 0.0 0.01 0.36 0.36 93 1007.0
20260506014539 59 124 0.0 0.0 0.01 0.36 0.36 93 1006.8
20260506013043 59 124 0.0 0.0 0.01 0.36 0.36 93 1006.4
20260506011537 59 124 0.0 0.0 0.01 0.36 0.36 93 1006.4
20260506010036 59 124 0.0 0.0 0.01 0.35 0.35 93 1006.3
20260506004604 60 124 0.0 0.0 0.01 0.35 0.35 93 1006.2
20260506003034 60 124 0.0 0.0 0.03 0.35 0.35 93 1006.4
20260506001534 60 124 0.0 1.0 0.04 0.35 0.35 93 1006.6
20260506000033 60 124 0.0 1.0 0.12 0.34 0.34 93 1006.7
20260505234602 60 124 0.0 1.0 0.16 0.34 0.34 93 1006.4
20260505233031 60 126 0.0 1.0 0.17 0.32 0.32 93 1006.7
20260505231531 61 124 0.0 0.0 0.19 0.31 0.31 93 1006.7
20260505230027 61 129 0.0 1.0 0.10 0.22 0.22 93 1007.0
20260505224530 62 23 0.0 0.0 0.06 0.18 0.18 93 1007.5
20260505223025 63 22 0.0 0.0 0.03 0.15 0.15 93 1007.2
20260505221525 63 22 0.0 0.0 0.00 0.12 0.12 93 1006.9
20260505220023 62 22 0.0 0.0 0.00 0.12 0.12 93 1007.0
20260505214524 62 22 0.0 0.0 0.00 0.12 0.12 93 1007.1
20260505213019 62 22 0.0 0.0 0.00 0.12 0.12 93 1007.6
20260505211519 62 22 0.0 0.0 0.00 0.12 0.12 93 1007.7
20260505210021 62 22 0.0 0.0 0.00 0.12 0.12 93 1007.8
20260505204524 62 22 0.0 0.0 0.02 0.12 0.12 93 1008.1
20260505203018 62 22 0.0 0.0 0.04 0.12 0.12 93 1008.2
20260505201522 62 22 0.0 0.0 0.06 0.12 0.12 92 1008.5
20260505200023 62 22 0.0 0.0 0.10 0.12 0.12 92 1008.6
20260505194516 62 22 0.0 0.0 0.10 0.10 0.10 92 1008.8
20260505193015 62 22 0.0 0.0 0.08 0.08 0.08 91 1009.0
20260505191517 62 20 0.0 0.0 0.06 0.06 0.06 91 1009.4
20260505190011 63 22 0.0 1.0 0.02 0.02 0.02 88 1009.0
20260505184521 65 6 0.0 1.0 0.00 0.00 0.00 83 1009.3
20260505183031 68 82 0.0 3.0 0.00 0.00 0.00 76 1009.3
20260505181512 69 248 1.0 6.0 0.00 0.00 0.00 71 1009.0
20260505180008 70 220 0.0 11.0 0.00 0.00 0.00 70 1008.9
20260505174510 70 202 1.0 7.0 0.00 0.00 0.00 70 1008.9
20260505173008 69 207 1.0 5.0 0.00 0.00 0.00 71 1009.0
20260505171600 68 163 0.0 3.0 0.00 0.00 0.00 73 1009.6
20260505170201 67 225 1.0 5.0 0.00 0.00 0.00 73 1009.6
20260505164627 67 219 1.0 5.0 0.00 0.00 0.00 72 1009.8
20260505163056 67 111 0.0 9.0 0.00 0.00 0.00 72 1010.1
20260505161558 67 239 1.0 6.0 0.00 0.00 0.00 72 1010.1
20260505153050 65 128 1.0 6.0 0.00 0.00 0.00 74 1010.1
20260505151546 65 243 0.0 6.0 0.00 0.00 0.00 74 1009.9
20260505124538 60 201 0.0 1.0 0.00 0.02 0.00 85 1010.1
20260505123035 60 156 0.0 0.0 0.00 0.02 0.00 85 1010.4
20260505121536 60 27 0.0 0.0 0.00 0.02 0.00 85 1010.4
20260505120041 60 4 0.0 0.0 0.00 0.02 0.00 85 1010.2
20260505114533 60 4 0.0 0.0 0.00 0.02 0.00 84 1010.0
20260505113033 60 3 0.0 0.0 0.00 0.02 0.00 84 1010.0